Simultaneous Nadir Overpasses (SNOs) Predictions

Prediction of SNOs between NPP and TERRA Satellite Orbit:

Table of predicted SNOs for the next 14.0 days since TLE Epoch: 4/16/2016
Index Date (NPP) Time (NPP) Lat,Lon (NPP) SZA (NPP ) Date (TERRA) Time (TERRA) Lat,Lon (TERRA) SZA (TERRA ) Distance(km) Time Diff (sec)
1 04/16/2016 09:49:39 -69.00,-149.28 121.45 04/16/2016 09:50:50 -68.86,-148.33 121.60 40.83 71
2 04/16/2016 10:40:14 68.40, 18.83 57.93 04/16/2016 10:40:23 68.42, 18.77 57.95 3.29 9
3 04/16/2016 11:30:56 -68.31,-173.73 122.18 04/16/2016 11:29:53 -68.32,-173.72 122.17 1.02 63
4 04/19/2016 02:06:26 -68.52, -32.87 122.87 04/19/2016 02:07:29 -68.51, -32.91 122.89 2.26 63
5 04/19/2016 02:57:10 68.41, 134.59 57.00 04/19/2016 02:56:56 68.39, 134.60 56.99 1.83 14
6 04/19/2016 03:47:44 -67.88, -57.43 123.54 04/19/2016 03:46:32 -67.96, -58.28 123.46 36.52 72
7 04/21/2016 18:23:21 -68.48, 82.95 123.83 04/21/2016 18:24:04 -68.47, 82.91 123.84 1.87 43
8 04/21/2016 19:14:05 68.36,-109.59 56.05 04/21/2016 19:13:31 68.35,-109.59 56.03 1.17 34
9 04/24/2016 09:49:49 69.39, 30.16 56.22 04/24/2016 09:50:56 69.29, 32.16 56.11 79.35 67
10 04/24/2016 10:40:15 -68.43,-161.23 124.76 04/24/2016 10:40:40 -68.43,-161.29 124.77 2.84 25
11 04/24/2016 11:30:59 68.32, 6.23 55.11 04/24/2016 11:30:07 68.30, 6.20 55.10 2.28 52
12 04/27/2016 02:06:33 68.76, 146.79 54.72 04/27/2016 02:07:45 68.67, 147.22 54.63 19.98 72
13 04/27/2016 02:57:11 -68.45, -45.48
